SKYSAT-C10

Last updated on Mon Jul 07 2025 00:02:29 GMT+0000 (Coordinated Universal Time)

1 42988U 17068B 25187.32113407 .00007955 00000+0 26618-3 0 9998 2 42988 97.4070 318.0446 0002614 65.8080 294.3434 15.31238993429396
UTC large
Height (km)
Speed (km/s)
/
Latitude / Longitude
Inclination (degrees)
Orbital Period (minutes)
Azimuth
Elevation
Range (km)
Doppler Factor

Next 0 passes for location: London (51.5072 / 0.1276)

Sorry there are no passes over London.